AirNav   Pilot Hours Calculator
 
 1593 users online  

I74 Grimes Field Airport
Urbana, Ohio, USA

GOING TO URBANA?


FAA INFORMATION EFFECTIVE 16 JUNE 2022

Location

FAA Identifier: I74
Lat/Long: 40-07-56.5387N 083-45-14.6258W
40-07.942312N 083-45.243763W
40.1323719,-83.7540627
(estimated)
Elevation: 1067.9 ft. / 325.5 m (surveyed)
Variation: 04W (1985)
From city: 1 mile N of URBANA, OH
Time zone: UTC -4 (UTC -5 during Standard Time)
Zip code: 43078

Airport Operations

Airport use: Open to the public
Activation date: 07/1942
Control tower: no
ARTCC: INDIANAPOLIS CENTER
FSS: DAYTON FLIGHT SERVICE STATION
NOTAMs facility: DAY (NOTAM-D service available)
Attendance: TUE-SAT 0800-1630, ALL SUN-MON UNATNDD
Wind indicator: lighted
Segmented circle: no
Lights: ACTVT REIL RWY 02 & 20; MIRL RWY 02/20 - CTAF.
Beacon: white-green (lighted land airport)
Operates sunset to sunrise.

Airport Communications

CTAF/UNICOM: 122.7
WX AWOS-3: 118.325 (937-484-5863)
COLUMBUS APPROACH: 118.425
COLUMBUS DEPARTURE: 118.425
CLASS C: 118.425
IC: 118.425
WX AWOS-3 at EDJ (15 nm N): 118.075 (937-599-4654)
WX AWOS-3PT at SGH (18 nm S): 134.975 (937-324-4532)
WX AWOS-3PT at UYF (18 nm SE): 120.85 (740-852-2844)
WX AWOS-3 at SCA (19 nm W): 120.425 (937-492-3683)
WX AWOS-3 at MRT (19 nm E): 119.275 (937-644-2967)

Airport Services

Fuel available: 100LL JET-A+
100LL:FUEL AVBL H24 SELF SVC.
Parking: hangars and tiedowns
Airframe service: MINOR
Powerplant service: MINOR

Runway Information

Runway 2/20

Dimensions: 4400 x 100 ft. / 1341 x 30 m
Surface: asphalt, in good condition
Runway edge lights: medium intensity
RUNWAY 2  RUNWAY 20
Latitude: 40-07.609412N40-08.299047N
Longitude: 083-45.357170W083-45.067192W
Elevation: 1057.8 ft.1067.5 ft.
Traffic pattern: leftleft
Runway heading: 022 magnetic, 018 true202 magnetic, 198 true
Markings: nonprecision, in fair conditionnonprecision, in fair condition
Visual slope indicator: 4-light PAPI on right (3.00 degrees glide path)4-light PAPI on left (3.00 degrees glide path)
Runway end identifier lights: yesyes
Touchdown point: yes, no lightsyes, no lights
Obstructions: 85 ft. tree, 2150 ft. from runway, 22:1 slope to clear88 ft. tree, 2750 ft. from runway, 28:1 slope to clear

Runway 1/19

Dimensions: 3000 x 100 ft. / 914 x 30 m
Surface: turf, in good condition
RUNWAY 1  RUNWAY 19
Latitude: 40-07.680167N40-08.169500N
Longitude: 083-45.334333W083-45.245833W
Elevation: 1060.0 ft.1060.0 ft.
Traffic pattern: leftleft
Runway heading: 012 magnetic, 008 true192 magnetic, 188 true

Airport Ownership and Management from official FAA records

Ownership: Publicly-owned
Owner: CITY OF URBANA
205 S MAIN ST
URBANA, OH 43078-2113
Phone 937-652-4304
Manager: ELTON CULTICE
1636 N MAIN ST
URBANA, OH 43078-5001
Phone 937-652-4319
CELL 937-346-5690.

Airport Operational Statistics

Aircraft based on the field: 46
Single engine airplanes: 36
Multi engine airplanes: 9
Helicopters: 1
    
Aircraft operations: avg 64/day *
51% transient general aviation
46% local general aviation
2% military
2% air taxi
* for 12-month period ending 08 September 2019

Additional Remarks

A30A-20 CALM WIND RWY.
FOR CD CTC COLUMBUS APCH AT 614-338-8537.
BIRDS & DEER ON AND INVOF ARPT.
125 FT WATER TWR 1 MILE S.

Instrument Procedures

NOTE: All procedures below are presented as PDF files. If you need a reader for these files, you should download the free Adobe Reader.

NOT FOR NAVIGATION. Please procure official charts for flight.
FAA instrument procedures published for use from 16 June 2022 at 0901Z to 14 July 2022 at 0900z.

 
IAPs - Instrument Approach Procedures
RNAV (GPS) RWY 02 **CHANGED**   download (243KB)
RNAV (GPS) RWY 20 **CHANGED**   download (262KB)
VOR-A **CHANGED**   download (187KB)
NOTE: Special Alternate Minimums apply   download (146KB)
NOTE: Special Take-Off Minimums/Departure Procedures apply   download (467KB)

Other nearby airports with instrument procedures:

KEDJ - Bellefontaine Regional Airport (15 nm N)
KSGH - Springfield/Beckley Municipal Airport (18 nm S)
KUYF - Madison County Airport (18 nm SE)
KSCA - Sidney Municipal Airport (19 nm W)
KMRT - Union County Airport (19 nm E)
 
Loc | Ops | Rwys | IFR | FBO | Links
Com | Nav | Svcs | Stats | Notes
Area around I74 (Grimes Field Airport)
 
Road maps at: MapQuest Bing Google
 
Aerial photo
WARNING: Photo may not be current or correct
Aerial photo of I74 (Grimes Field Airport)
Photo by Michael Armstrong
Photo taken 11-Oct-2013
looking west.

Do you have a better or more recent aerial photo of Grimes Field Airport that you would like to share? If so, please send us your photo.

 
Sectional chart

 
Airport diagram
CAUTION: Diagram may not be current
Diagram of I74 (Grimes Field Airport)
 
Airport distance calculator
Flying to Grimes Field Airport? Find the distance to fly.

From to I74

Sunrise and sunset
Times for 29-Jun-2022
 Local
(UTC-4)
 Zulu
(UTC)
Morning civil twilight05:3709:37
Sunrise06:0910:09
Sunset21:0701:07
Evening civil twilight21:4001:40

Current date and time
Zulu (UTC)  29-Jun-2022 16:01:33
Local (UTC-4)  29-Jun-2022 12:01:33
 
METAR
KI74 291555Z AUTO 30005KT 10SM CLR 25/11 A3027 RMK AO2
KEDJ 
15nm N 
291555Z AUTO 31005KT 10SM CLR 26/11 A3027 RMK A01
KUYF 
18nm SE 
291555Z AUTO 27003KT 10SM CLR 26/05 A3027 RMK AO2
KSGH 
19nm S 
291556Z AUTO 33005KT 10SM CLR 26/11 A3027 RMK AO2 SLP247 T02560106 $
KMRT 
19nm E 
291555Z AUTO 34004KT 10SM SCT002 26/07 A3027 RMK AO2 T02640074
TAF
KFFO 
23nm SW 
291100Z 2911/3017 VRB06KT 9999 SKC QNH3019INS BECMG 2917/2918 24008KT 9999 FEW040 QNH3018INS BECMG 3000/3001 VRB05KT 9999 SKC QNH3018INS TX30/2920Z TN12/2911Z
KDAY 
25nm SW 
291130Z 2912/3012 VRB04KT P6SM FEW250 FM291500 23006KT P6SM FEW050 FM300000 00000KT P6SM SKC
NOTAMs
Click for the latest NOTAMs
NOTAMs are issued by the DoD/FAA and will open in a separate window not controlled by AirNav.

 

 
 

FBO, Fuel Providers, and Aircraft Ground Support

  
 Business Name 
 
 Contact 
 
 Services / Description 
 
Fuel Prices
 
Comments
  
Grimes Field 937-652-4319
no information available

If you are affiliated with Grimes Field and would like to show here your services, contact info, web link, logo, and more, click here
100LL Jet A
SS $7.95 $6.50 
 Updated 28-Jun-2022
 
   write
SS=Self service
Update Fuel Prices
 

Where to Eat: Catering, Restaurants, Food shops

  
 Business Name 
 
 Contact 
 
 Services / Description 
 
Distance
 
Comments
  
The Airport Cafe 937-652-2010
no information available

If you are affiliated with The Airport Cafe and would like to show here your services, contact info, web link, logo, and more, click here
on airport  
   write
 

Would you like to see your business listed on this page?

 If your business provides an interesting product or service to pilots, flight crews, aircraft, or users of the Grimes Field Airport, you should consider listing it here.  To start the listing process, click on the button below
 
Add a business
 

Other Pages about Grimes Field Airport

www.urbanaohio.com/airport---grimes-field.html
 
Update a link
 
Copyright © AirNav, LLC. All rights reserved. Privacy Policy  Contact